EW9837 Weather Reports


time (UTC)temp
F
wind
direction
speed
knots
gust
knots
rain 1hr
in
rain 24hr
in
rain mn
in
humidity
%
barometer
mb
20260503213107 82 59 4.3 12.2 0.00 0.00 0.00 28 1014.6
20260503211535 82 61 4.3 9.6 0.00 0.00 0.00 28 1014.9
20260503210111 82 41 5.2 11.3 0.00 0.00 0.00 28 1015.1
20260503204535 82 55 5.2 10.4 0.00 0.00 0.00 29 1015.2
20260503203033 81 65 5.2 12.2 0.00 0.00 0.00 29 1015.4
20260503201531 81 71 6.1 16.5 0.00 0.00 0.00 29 1015.5
20260503193037 80 92 6.1 13.9 0.00 0.00 0.00 30 1015.9
20260503191536 80 68 7.0 13.0 0.00 0.00 0.00 31 1016.0
20260503183030 77 333 3.5 6.1 0.00 0.00 0.00 41 1016.4
20260503181535 77 341 3.5 6.1 0.00 0.00 0.00 43 1016.5
20260503180036 76 344 1.7 5.2 0.00 0.00 0.00 43 1016.6
20260503174653 75 357 2.6 6.1 0.00 0.00 0.00 43 1016.7
20260503173033 76 3 2.6 4.3 0.00 0.00 0.00 42 1016.9
20260503170152 76 352 0.9 3.5 0.00 0.00 0.00 43 1017.0
20260503090151 47 178 2.6 3.5 0.00 0.00 0.00 88 1017.0
20260503081606 48 143 1.7 3.5 0.00 0.00 0.00 86 1016.9
20260503071533 51 165 0.9 2.6 0.00 0.00 0.00 81 1017.0
20260503060106 55 179 3.5 4.3 0.00 0.00 0.00 77 1017.0
20260503054537 55 179 1.7 3.5 0.00 0.00 0.00 75 1016.9
20260503053035 56 183 0.9 3.5 0.00 0.00 0.00 72 1016.8
20260503051535 58 97 0.0 2.6 0.00 0.00 0.00 68 1016.7
20260503044536 61 204 0.9 2.6 0.00 0.00 0.00 59 1016.7
20260503041535 61 183 3.5 6.1 0.00 0.00 0.00 63 1016.5
20260503040041 62 162 2.6 3.5 0.00 0.00 0.00 61 1016.4
20260503034537 64 174 3.5 6.1 0.00 0.00 0.00 59 1016.1
20260503033035 65 171 3.5 6.1 0.00 0.00 0.00 58 1015.9
20260503031548 66 162 3.5 7.0 0.00 0.00 0.00 57 1015.6
20260503024534 67 168 2.6 4.3 0.00 0.00 0.00 58 1015.2
20260503023108 68 180 2.6 3.5 0.00 0.00 0.00 59 1015.1
20260503021534 69 181 1.7 3.5 0.00 0.00 0.00 57 1015.1
20260503014532 73 176 1.7 4.3 0.00 0.00 0.00 45 1015.1
20260503011529 75 133 2.6 7.8 0.00 0.00 0.00 38 1015.1
20260503010108 75 160 0.9 7.8 0.00 0.00 0.00 37 1015.1
20260503004535 75 81 2.6 7.0 0.00 0.00 0.00 36 1015.1
20260503003035 75 97 4.3 10.4 0.00 0.00 0.00 36 1015.1
20260503001536 76 110 4.3 12.2 0.00 0.00 0.00 35 1015.1
20260503000037 76 107 3.5 12.2 0.00 0.00 0.00 35 1015.1
20260502234537 77 60 2.6 9.6 0.00 0.00 0.00 35 1015.3
20260502233038 77 81 5.2 13.0 0.00 0.00 0.00 34 1015.4
20260502231534 77 60 7.0 12.2 0.00 0.00 0.00 34 1015.6
20260502230043 77 64 7.0 17.4 0.00 0.00 0.00 34 1015.8
20260502224536 77 66 6.1 13.0 0.00 0.00 0.00 35 1015.9
20260502223033 77 96 7.8 13.0 0.00 0.00 0.00 34 1016.0
20260502221534 77 40 7.8 16.5 0.00 0.00 0.00 40 1016.1
20260502220038 76 14 3.5 9.6 0.00 0.00 0.00 42 1016.1
20260502214534 74 341 4.3 9.6 0.00 0.00 0.00 46 1016.4